#timestamp,LO_Frequency,Hit,StdDev 
1513915215.5,286046999.7,N
1513915235.3,286047000.5,N
1513915255.2,286047001.0,N
1513915275.9,286047002.6,N
1513915295.7,286047003.4,N
1513915315.6,286047005.1,N
1513915335.4,286047001.6,N
1513915355.2,286047000.5,N
1513915375.0,286047001.2,N
1513915376.0,286047001.2,N
1513915395.8,286046991.8,Y
1513915415.6,286046993.7,P
1513915435.5,286046996.1,N
1513915455.3,286046997.4,N
1513915475.1,286046997.1,N
1513915495.8,286047000.1,N
1513915515.7,286046996.7,N
1513915535.5,286046992.4,Y
1513915555.3,286046992.9,P
1513915575.2,286046997.6,N
1513915595.0,286046993.6,N
1513915595.9,286046993.6,N
1513915615.8,286046992.7,Y
1513915635.6,286046997.6,P
1513915655.4,286046999.9,N
1513915675.2,286046998.8,N
1513915695.1,286046993.6,Y
1513915696.0,286046993.6,P
1513915715.8,286046990.2,P
1513915735.7,286046990.2,P
1513915755.5,286046986.5,Y
1513915775.3,286046991.5,P
1513915795.2,286046992.1,P
1513915815.9,286046990.2,P
1513915835.7,286046989.7,Y
1513915855.6,286046993.3,P
1513915875.4,286046996.1,P
1513915895.2,286046994.1,P
1513915915.1,286046992.3,Y
1513915916.0,286046992.3,P
1513915935.8,286046998.1,N
1513915955.6,286047003.7,N
1513915975.5,286046999.8,N
1513915995.3,286046999.5,N
1513916015.1,286046997.4,N
1513916035.8,286046998.0,N
1513916055.7,286046993.8,N
1513916075.5,286046999.1,N
1513916095.3,286047001.7,N
1513916115.2,286047006.0,N
1513916135.9,286047001.8,N
1513916155.7,286047003.5,N
1513916175.6,286047001.7,N
1513916195.4,286047000.5,N
1513916215.2,286047005.9,N
1513916235.1,286047005.5,N
1513916236.0,286047005.5,N
1513916255.8,286047008.9,N
1513916275.6,286047009.2,N
1513916295.5,286047011.7,N
1513916315.3,286047013.9,N
1513916335.1,286047017.2,Y
1513916355.9,286047013.6,P
1513916375.7,286047014.1,N
1513916395.5,286047014.4,N
1513916415.3,286047009.3,N
1513916435.2,286047010.5,N
1513916455.9,286047010.9,N
1513916475.7,286047013.2,Y
1513916495.6,286047005.8,P
1513916515.4,286047006.0,N
1513916535.2,286047005.6,N
1513916555.1,286047003.3,N
1513916556.0,286047003.3,N
1513916575.8,286047005.1,N
1513916595.6,286047008.2,Y
1513916615.5,286047006.1,P
1513916635.3,286047005.8,P
1513916655.1,286047006.4,P
1513916675.9,286047003.7,Y
1513916695.7,286046993.5,P
1513916715.5,286046994.0,N
1513916735.4,286046992.4,N
1513916755.2,286046993.1,N
1513916775.0,286046990.6,N
1513916775.9,286046990.6,N
1513916795.8,286046992.8,N
1513916815.6,286046989.4,N
1513916835.4,286046990.9,N
1513916855.3,286046990.0,N
1513916875.1,286046986.4,Y
1513916876.0,286046986.4,P
1513916895.8,286046995.9,N
1513916915.7,286047000.6,N
1513916935.5,286046996.6,N
1513916955.3,286047002.2,N
1513916975.2,286046999.7,N
1513916995.9,286046999.4,N
1513917015.7,286046996.8,N
1513917035.5,286046993.6,N
1513917055.4,286046994.5,N
1513917075.2,286046997.1,N
1513917095.0,286046993.9,N
1513917095.9,286046993.9,N
1513917115.8,286046988.5,Y
1513917135.6,286046997.8,P
1513917155.4,286046995.2,P
1513917175.3,286046992.6,P
1513917195.1,286046996.0,N
1513917215.8,286046995.4,N
1513917235.7,286046995.6,N
1513917255.5,286046991.7,Y
1513917275.3,286046997.1,P
1513917295.2,286046993.5,P
1513917315.9,286046993.9,P
1513917335.7,286046996.4,N
1513917355.6,286046994.5,Y
1513917375.4,286046998.8,P
1513917395.2,286046998.5,N
1513917415.1,286047000.6,N
1513917416.0,286047000.6,N
1513917435.8,286046999.4,N
1513917455.6,286046999.2,N
1513917475.5,286047000.2,N
1513917495.3,286046997.1,N
1513917515.1,286046998.7,N
1513917535.9,286046996.6,N
1513917555.7,286046999.1,N
1513917575.5,286047000.4,N
1513917595.3,286047001.4,N
1513917615.2,286047000.7,N
1513917635.0,286046996.6,N
1513917635.9,286046996.6,N
1513917655.7,286046997.3,N
1513917675.6,286046995.6,N
1513917695.4,286046992.1,Y
1513917715.2,286046994.2,P
1513917735.1,286046996.6,N
1513917736.0,286046996.6,N
1513917755.8,286047001.4,N
1513917775.6,286047004.0,N
1513917795.5,286047001.2,N
1513917815.3,286047000.9,N
1513917835.1,286047000.5,N
1513917855.9,286046998.5,N
1513917875.7,286046996.8,N
1513917895.5,286046996.0,N
1513917915.4,286046997.9,N
1513917935.2,286046994.1,N
1513917955.0,286046990.6,Y
1513917955.9,286046990.6,P
1513917975.8,286046988.7,N
1513917995.6,286046992.6,N
1513918015.4,286046988.8,Y
1513918035.3,286046995.8,P
1513918055.1,286046990.4,P
1513918056.0,286046990.4,P
1513918075.8,286046985.3,Y
1513918095.7,286046992.8,P
1513918115.5,286046992.2,P
1513918135.3,286046988.5,P
1513918155.2,286046988.8,Y
1513918175.9,286047000.9,P
1513918195.7,286046995.8,N
1513918215.6,286046993.7,N
1513918235.4,286046993.2,N
1513918255.2,286046994.6,N
1513918275.1,286046995.9,N
1513918276.0,286046995.9,N
1513918295.8,286046993.8,N
1513918315.6,286046997.6,N
1513918335.4,286046996.8,N
1513918355.3,286046994.3,N
1513918375.1,286046993.8,N
1513918395.8,286046993.9,N
1513918415.7,286046994.4,N
1513918435.5,286046992.4,Y
1513918455.3,286046995.2,P
1513918475.2,286046995.8,P
1513918495.9,286046996.6,P
1513918515.7,286047000.7,N
1513918535.6,286047000.0,N
1513918555.4,286046997.1,N
1513918575.2,286046999.4,N
1513918595.1,286046999.2,N
1513918596.0,286046999.2,N
1513918615.8,286046998.8,N
1513918635.6,286047002.8,N
1513918655.5,286047005.6,N
1513918675.3,286047002.3,N
1513918695.1,286047002.7,N
1513918715.8,286046999.6,N
1513918735.7,286046997.0,N
1513918755.5,286046999.3,N
1513918775.3,286047001.1,N
1513918795.2,286047000.3,N
